• Join FlightAware (Why Join?)
  • Login
  • US Flag GB Flag 
15:12 EDT


 

Airport Tracker/Info


-or-


 

Live Flight TrackerFlight Track Log ✈ N28SP ✈ 06-Sep-2013 ✈ CYYR - BIRK / REK

Flight Track Log - Related Links

Times and Time Zones

All times are in EDT time to prevent confusion due to time zone crossing. See the N28SP flight status page for this flight to view local times or setup timezone preferences in your user account.

Time Position Orientation Groundspeed Altitude Reporting Facility
EDT Latitude Longitude Course Direction KTS MPH feet Rate Location/Type
08:40 53.3667 -60.5000 45° Northeast 200 230 8,300  Level Gander Center
08:41 53.4167 -60.4167 45° Northeast 230 265 11,000 2,580 Climbing Gander Center
08:42 53.4667 -60.3500 38° Northeast 230 265 13,500 2,220 Climbing Gander Center
08:43 53.5167 -60.2667 45° Northeast 230 265 15,500 1,860 Climbing Gander Center
08:44 53.5500 -60.2167 42° Northeast 230 265 17,300 2,400 Climbing Gander Center
08:45 53.6000 -60.1000 54° Northeast 250 288 20,300 2,700 Climbing Gander Center
08:46 53.6667 -60.0167 37° Northeast 270 311 22,700 2,100 Climbing Gander Center
08:47 53.7167 -59.9333 45° Northeast 270 311 24,500 1,920 Climbing Gander Center
08:48 53.7833 -59.8333 42° Northeast 280 322 26,600 1,800 Climbing Gander Center
08:49 53.8333 -59.7500 45° Northeast 290 334 28,200 1,800 Climbing Gander Center
08:50 53.9000 -59.6667 36° Northeast 290 334 30,200 1,740 Climbing Gander Center
08:51 53.9500 -59.5833 44° Northeast 290 334 31,700 1,380 Climbing Gander Center
08:52 54.0167 -59.4833 41° Northeast 280 322 33,000 1,200 Climbing Gander Center
08:53 54.0833 -59.3667 46° Northeast 290 334 34,100 1,020 Climbing Gander Center
08:54 54.1333 -59.2833 44° Northeast 300 345 35,100 900 Climbing Gander Center
08:55 54.2000 -59.1667 46° Northeast 310 357 35,900 780 Climbing Gander Center
08:56 54.2667 -59.0833 36° Northeast 310 357 36,700 540 Climbing Gander Center
08:57 54.3333 -58.9667 46° Northeast 320 368 37,000 120 Climbing Gander Center
08:58 54.4167 -58.8667 35° Northeast 340 391 37,000  Level Gander Center
08:59 54.4667 -58.7167 60° Northeast 370 426 37,000  Level Gander Center
09:00 54.5500 -58.6000 39° Northeast 380 437 37,000  Level Gander Center
09:01 54.6333 -58.4833 39° Northeast 400 460 37,000  Level Gander Center
09:02 54.7167 -58.3333 46° Northeast 400 460 37,000  Level Gander Center
09:03 54.8000 -58.2167 39° Northeast 400 460 37,000  Level Gander Center
09:04 55.5167 -57.0167 54° Northeast 411 473 37,000  Level ETMS Enhanced Traffic Management System
09:05 54.9500 -57.9333 54° Northeast 400 460 37,000  Level Gander Center
09:06 55.0333 -57.7833 46° Northeast 400 460 37,000  Level Gander Center
09:07 55.1167 -57.6667 39° Northeast 400 460 37,000  Level Gander Center
09:08 55.2000 -57.5333 42° Northeast 400 460 37,000  Level Gander Center
09:09 55.2667 -57.3833 52° Northeast 410 472 37,000  Level Gander Center
09:10 55.3500 -57.2500 42° Northeast 410 472 37,000  Level Gander Center
09:11 55.4500 -57.1000 40° Northeast 410 472 37,000  Level Gander Center
09:12 55.5333 -56.9667 42° Northeast 410 472 37,000  Level Gander Center
09:13 55.5833 -56.7833 64° Northeast 410 472 37,000  Level Gander Center
09:14 55.6500 -56.6333 52° Northeast 410 472 37,000  Level Gander Center
09:15 55.5167 -57.0167 54° Northeast 411 473 37,000  Level ETMS Enhanced Traffic Management System
09:16 55.7833 -56.3167 54° Northeast 410 472 37,000  Level Gander Center
09:17 55.8500 -56.1333 57° Northeast 410 472 37,000  Level Gander Center
09:18 55.9000 -55.9833 59° Northeast 410 472 37,000  Level Gander Center
09:19 55.9833 -55.8167 48° Northeast 410 472 37,000  Level Gander Center
09:21 56.1167 -55.4333 58° Northeast 410 472 37,000  Level Gander Center
09:22 56.1667 -55.2500 64° Northeast 420 483 37,000  Level Gander Center
09:23 56.2333 -55.1167 48° Northeast 410 472 37,000  Level Gander Center
09:24 56.3000 -54.9333 57° Northeast 420 483 37,000  Level Gander Center
09:25 56.3667 -54.7667 54° Northeast 420 483 37,000  Level Gander Center
09:26 56.4333 -54.5667 59° Northeast 410 472 37,000  Level Gander Center
09:27 56.4833 -54.4667 48° Northeast 400 460 37,000  Level Gander Center
09:28 56.5500 -54.2833 57° Northeast 420 483 37,000  Level Gander Center
09:29 56.6167 -54.1500 48° Northeast 410 472 37,000  Level Gander Center
09:30 56.6833 -53.9167 62° Northeast 420 483 37,000  Level Gander Center
09:31 56.7500 -53.7500 54° Northeast 430 495 37,000  Level Gander Center
09:32 56.8333 -53.5500 53° Northeast 430 495 37,000  Level Gander Center
09:33 56.8833 -53.3667 63° Northeast 440 506 37,000  Level Gander Center
09:34 56.9500 -53.2167 51° Northeast 430 495 37,000  Level Gander Center
09:35 57.0000 -53.0333 63° Northeast 430 495 37,000  Level Gander Center
09:38 57.0845 -52.7915 57° Northeast  Level FlightAware Approximate
09:45 57.4950 -51.5800 57° Northeast  Level FlightAware Approximate
09:46 57.5527 -51.4048 58° Northeast  Level FlightAware Approximate
09:47 57.6102 -51.2289 59° Northeast  Level FlightAware Approximate
09:48 57.6674 -51.0526 59° Northeast  Level FlightAware Approximate
09:49 57.7243 -50.8756 59° Northeast  Level FlightAware Approximate
09:50 57.7811 -50.6981 59° Northeast  Level FlightAware Approximate
09:51 57.8375 -50.5201 59° Northeast  Level FlightAware Approximate
09:52 57.8937 -50.3415 59° Northeast  Level FlightAware Approximate
09:53 57.9497 -50.1623 59° Northeast  Level FlightAware Approximate
09:54 58.0061 -49.9833 55° Northeast  Level FlightAware Approximate
09:55 58.0689 -49.8118 55° Northeast  Level FlightAware Approximate
09:56 58.1315 -49.6397 55° Northeast  Level FlightAware Approximate
09:57 58.1938 -49.4669 56° Northeast  Level FlightAware Approximate
09:58 58.2558 -49.2936 56° Northeast  Level FlightAware Approximate
09:59 58.3177 -49.1196 56° Northeast  Level FlightAware Approximate
09:59 58.0000 -50.0000 55° Northeast 460 529 37,000  Level ETMS Enhanced Traffic Management System
10:00 58.3793 -48.9451 56° Northeast  Level FlightAware Approximate
10:01 58.4407 -48.7699 56° Northeast  Level FlightAware Approximate
10:02 58.5018 -48.5942 56° Northeast  Level FlightAware Approximate
10:03 58.5627 -48.4178 56° Northeast  Level FlightAware Approximate
10:04 58.6233 -48.2408 57° Northeast  Level FlightAware Approximate
10:05 59.0606 -46.9344 58° Northeast 460 529 37,000  Level FlightAware Transoceanic
10:06 59.1286 -46.7234 58° Northeast 460 529 37,000  Level FlightAware Transoceanic
10:07 59.1963 -46.5116 58° Northeast 460 529 37,000  Level FlightAware Transoceanic
10:08 59.2637 -46.2989 58° Northeast 460 529 37,000  Level FlightAware Transoceanic
10:09 59.3307 -46.0854 59° Northeast 460 529 37,000  Level FlightAware Transoceanic
10:10 59.3974 -45.8710 59° Northeast 460 529 37,000  Level FlightAware Transoceanic
10:11 59.4637 -45.6558 59° Northeast 460 529 37,000  Level FlightAware Transoceanic
10:12 59.5297 -45.4397 59° Northeast 460 529 37,000  Level FlightAware Transoceanic
10:13 59.5952 -45.2228 59° Northeast 460 529 37,000  Level FlightAware Transoceanic
10:14 59.6605 -45.0051 59° Northeast 460 529 37,000  Level FlightAware Transoceanic
10:15 59.7254 -44.7865 60° Northeast 460 529 37,000  Level FlightAware Transoceanic
10:16 59.7899 -44.5671 60° Northeast 460 529 37,000  Level FlightAware Transoceanic
10:17 59.8540 -44.3468 60° Northeast 460 529 37,000  Level FlightAware Transoceanic
10:18 59.9178 -44.1256 60° Northeast 460 529 37,000  Level FlightAware Transoceanic
10:19 59.9812 -43.9037 60° Northeast 460 529 37,000  Level FlightAware Transoceanic
10:20 60.0443 -43.6808 61° Northeast 460 529 37,000  Level FlightAware Transoceanic
10:21 60.1069 -43.4572 61° Northeast 460 529 37,000  Level FlightAware Transoceanic
10:22 60.1692 -43.2326 61° Northeast 460 529 37,000  Level FlightAware Transoceanic
10:23 60.2311 -43.0073 61° Northeast 460 529 37,000  Level FlightAware Transoceanic
10:24 60.2926 -42.7810 61° Northeast 460 529 37,000  Level FlightAware Transoceanic
10:25 60.3537 -42.5539 62° Northeast 460 529 37,000  Level FlightAware Transoceanic
10:26 60.4145 -42.3260 62° Northeast 460 529 37,000  Level FlightAware Transoceanic
10:27 60.4748 -42.0972 62° Northeast 460 529 37,000  Level FlightAware Transoceanic
10:28 60.5348 -41.8676 62° Northeast 460 529 37,000  Level FlightAware Transoceanic
10:29 60.5943 -41.6371 62° Northeast 460 529 37,000  Level FlightAware Transoceanic
10:30 60.6535 -41.4058 63° Northeast 460 529 37,000  Level FlightAware Transoceanic
10:31 60.7123 -41.1736 63° Northeast 460 529 37,000  Level FlightAware Transoceanic
10:32 60.7706 -40.9406 63° Northeast 460 529 37,000  Level FlightAware Transoceanic
10:33 60.8286 -40.7067 63° Northeast 460 529 37,000  Level FlightAware Transoceanic
10:34 60.8861 -40.4720 63° Northeast 460 529 37,000  Level FlightAware Transoceanic
10:35 60.9433 -40.2364 64° Northeast 460 529 37,000  Level FlightAware Transoceanic
10:36 60.9922 -40.0325 64° Northeast  Level FlightAware Approximate
10:37 61.0409 -39.8280 64° Northeast  Level FlightAware Approximate
10:37 61.0000 -40.0000 63° Northeast 482 555 37,000  Level ETMS Enhanced Traffic Management System
10:38 61.0346 -39.8621 63° Northeast  Level FlightAware Approximate
10:39 61.0851 -39.6593 63° Northeast  Level FlightAware Approximate
10:40 61.1353 -39.4558 63° Northeast  Level FlightAware Approximate
10:41 61.1852 -39.2517 63° Northeast  Level FlightAware Approximate
10:42 61.2348 -39.0469 63° Northeast  Level FlightAware Approximate
10:43 61.4799 -38.0055 64° Northeast 482 555 37,000  Level FlightAware Transoceanic
10:44 61.5378 -37.7519 65° Northeast 482 555 37,000  Level FlightAware Transoceanic
10:45 61.5952 -37.4974 65° Northeast 482 555 37,000  Level FlightAware Transoceanic
10:46 61.6521 -37.2419 65° Northeast 482 555 37,000  Level FlightAware Transoceanic
10:47 61.7086 -36.9855 65° Northeast 482 555 37,000  Level FlightAware Transoceanic
10:48 61.7646 -36.7281 65° Northeast 482 555 37,000  Level FlightAware Transoceanic
10:49 61.8201 -36.4699 66° East 482 555 37,000  Level FlightAware Transoceanic
10:50 61.8752 -36.2107 66° East 482 555 37,000  Level FlightAware Transoceanic
10:51 61.9297 -35.9505 66° East 482 555 37,000  Level FlightAware Transoceanic
10:52 61.9837 -35.6895 66° East 482 555 37,000  Level FlightAware Transoceanic
10:53 62.0373 -35.4275 67° East 482 555 37,000  Level FlightAware Transoceanic
10:54 62.0904 -35.1646 67° East 482 555 37,000  Level FlightAware Transoceanic
10:55 62.1429 -34.9007 67° East 482 555 37,000  Level FlightAware Transoceanic
10:56 62.1950 -34.6360 67° East 482 555 37,000  Level FlightAware Transoceanic
10:57 62.2465 -34.3703 68° East 482 555 37,000  Level FlightAware Transoceanic
10:58 62.2975 -34.1038 68° East 482 555 37,000  Level FlightAware Transoceanic
10:59 62.3480 -33.8363 68° East 482 555 37,000  Level FlightAware Transoceanic
11:00 62.3981 -33.5680 68° East 482 555 37,000  Level FlightAware Transoceanic
11:01 62.4475 -33.2988 68° East 482 555 37,000  Level FlightAware Transoceanic
11:02 62.4965 -33.0286 69° East 482 555 37,000  Level FlightAware Transoceanic
11:03 62.5450 -32.7576 69° East 482 555 37,000  Level FlightAware Transoceanic
11:04 62.5929 -32.4857 69° East 482 555 37,000  Level FlightAware Transoceanic
11:05 62.6403 -32.2129 69° East 482 555 37,000  Level FlightAware Transoceanic
11:06 62.6871 -31.9393 70° East 482 555 37,000  Level FlightAware Transoceanic
11:07 62.7334 -31.6648 70° East 482 555 37,000  Level FlightAware Transoceanic
11:08 62.7792 -31.3894 70° East 482 555 37,000  Level FlightAware Transoceanic
11:09 62.8245 -31.1132 70° East 482 555 37,000  Level FlightAware Transoceanic
11:10 62.8692 -30.8362 71° East 482 555 37,000  Level FlightAware Transoceanic
11:11 62.9133 -30.5583 71° East 482 555 37,000  Level FlightAware Transoceanic
11:12 62.9569 -30.2796 71° East 482 555 37,000  Level FlightAware Transoceanic
11:13 62.9924 -30.0495 71° East  Level FlightAware Approximate
11:14 63.0275 -29.8189 71° East  Level FlightAware Approximate
11:15 63.0217 -29.8698 70° East  Level FlightAware Approximate
11:16 63.0594 -29.6410 70° East  Level FlightAware Approximate
11:17 63.0968 -29.4116 70° East  Level FlightAware Approximate
11:18 63.1338 -29.1816 70° East  Level FlightAware Approximate
11:19 63.1704 -28.9510 71° East  Level FlightAware Approximate
11:20 63.2067 -28.7198 71° East  Level FlightAware Approximate
11:21 63.2426 -28.4881 71° East  Level FlightAware Approximate
11:22 63.2781 -28.2558 71° East  Level FlightAware Approximate
11:23 63.3132 -28.0229 71° East  Level FlightAware Approximate
11:24 63.3479 -27.7895 72° East  Level FlightAware Approximate
11:25 63.3823 -27.5555 72° East  Level FlightAware Approximate
11:26 63.4162 -27.3209 72° East  Level FlightAware Approximate
11:27 63.4498 -27.0858 72° East  Level FlightAware Approximate
11:28 63.4786 -26.8475 77° East  Level FlightAware Approximate
11:29 63.5083 -26.6094 74° East  Level FlightAware Approximate
11:30 63.5396 -26.3720 72° East  Level FlightAware Approximate
11:31 63.5726 -26.1354 73° East  Level FlightAware Approximate
11:32 63.6052 -25.8983 73° East  Level FlightAware Approximate
11:33 63.6374 -25.6607 73° East  Level FlightAware Approximate
11:34 63.6662 -25.4206 76° East  Level FlightAware Approximate
11:35 63.6987 -25.1826 73° East  Level FlightAware Approximate
11:36 63.7308 -24.9442 73° East  Level FlightAware Approximate
11:37 63.7611 -24.7043 75° East  Level FlightAware Approximate
11:38 63.7889 -24.4625 75° East  Level FlightAware Approximate
11:39 63.8163 -24.2202 76° East  Level FlightAware Approximate
11:40 63.8474 -23.9801 73° East  Level FlightAware Approximate
11:41 63.8782 -23.7395 74° East  Level FlightAware Approximate
11:42 63.9087 -23.4984 74° East  Level FlightAware Approximate
11:43 63.9374 -23.2560 78° East  Level FlightAware Approximate
11:44 63.9598 -23.0098 78° East  Level FlightAware Approximate
11:45 63.9904 -22.7685 72° East  Level FlightAware Approximate
11:46 64.0245 -22.5290 72° East  Level FlightAware Approximate
11:47 64.0494 -22.2836 79° East  Level FlightAware Approximate
11:48 64.0683 -22.0356 76° East  Level FlightAware Approximate
11:49 64.1300 -21.9406 78° East  Level Estimated
11:50 64.1300 -21.9406 78° East  Level Estimated
11:51 64.1300 -21.9406 78° East  Level Estimated
11:52 64.1300 -21.9406 78° East  Level Estimated
11:53 64.1300 -21.9406 78° East  Level Estimated
11:54 64.1300 -21.9406 78° East  Level Estimated
11:55 64.1300 -21.9406 78° East  Level Estimated
11:56 64.1300 -21.9406 78° East  Level Estimated
11:57 64.1300 -21.9406 78° East  Level Estimated
11:58 64.1300 -21.9406 78° East  Level Estimated
11:59 64.1300 -21.9406 78° East  Level Estimated
12:00 64.1300 -21.9406 78° East  Level Estimated
12:01 64.1300 -21.9406 78° East  Level Estimated
12:02 64.1300 -21.9406 78° East  Level Estimated
12:03 64.1300 -21.9406 78° East  Level Estimated
12:04 64.1300 -21.9406 78° East  Level Estimated
12:05 64.1300 -21.9406 78° East  Level Estimated
12:06 64.1300 -21.9406 78° East  Level Estimated
12:07 64.1300 -21.9406 78° East  Level Estimated
12:08 64.1300 -21.9406 78° East  Level Estimated
12:09 64.1300 -21.9406 78° East  Level Estimated
12:10 64.1300 -21.9406 78° East  Level Estimated
12:11 64.1300 -21.9406 78° East  Level Estimated
12:12 64.1300 -21.9406 78° East  Level Estimated
12:13 64.1300 -21.9406 78° East  Level Estimated
12:14 64.1300 -21.9406 78° East  Level Estimated
12:15 64.1300 -21.9406 78° East  Level Estimated
12:16 64.1300 -21.9406 78° East  Level Estimated
12:17 64.1300 -21.9406 78° East  Level Estimated
12:18 64.1300 -21.9406 78° East  Level Estimated